Regional Weather Roundup
Issued by NWS

Home | Current Version | Previous Version | Text Only | Print | Product List | Glossary Off
Versions: 1 2 3 4 5 6 7 8 9 10 11 12 13 14 15 16 17 18 19 20 21 22 23 24 25 26 27 28 29 30 31 32 33 34 35 36 37 38 39 40 41 42 43 44 45 46 47 48 49 50

000
ASUS43 KMKX 232320
RWRWI

WISCONSIN REGIONAL WEATHER ROUNDUP
NATIONAL WEATHER SERVICE MILWAUKEE/SULLIVAN WI
500 PM CST FRI FEB 23 2018

NOTE: "FAIR" INDICATES FEW OR NO CLOUDS BELOW 12,000 FEET WITH NO
SIGNIFICANT WEATHER AND/OR OBSTRUCTIONS TO VISIBILITY.

WIZ001-002-006>008-014>016-023>028-240000-
NORTHWEST WISCONSIN

CITY           SKY/WX    TMP DP  RH WIND       PRES   REMARKS
SUPERIOR ARPT  CLOUDY    33  24  67 W8        30.14R WCI  27
ASHLAND        FAIR      29  21  72 W8        30.14R WCI  21
HAYWARD        FAIR      31  22  69 W5        30.14R WCI  26
SIREN          FAIR      32  21  64 W8        30.16R WCI  25
CUMBERLAND     FAIR      28  19  69 W10       30.16R WCI  19
RICE LAKE      FAIR      30  21  70 SW6       30.18R WCI  24
CHETEK         FAIR      30  22  70 CALM      30.18R
LADYSMITH      CLOUDY    30  22  72 W10       30.16R WCI  21
EAU CLAIRE     FAIR      28  22  78 SW9       30.21R WCI  19
MENOMONIE      FAIR      30  21  69 SW7       30.22R WCI  23
NEW RICHMOND   FAIR      31  20  64 W9        30.20R WCI  23
OSCEOLA        FAIR      32  21  64 W12       30.23R WCI  23
$$

WIZ003>005-009-010-017-018-240000-
NORTH CENTRAL WISCONSIN

CITY           SKY/WX    TMP DP  RH WIND       PRES   REMARKS
MANITOWISH WTR CLOUDY    28  24  84 W7        30.08R WCI  21
ARBOR VITAE    CLOUDY    32  27  83 W7        30.09R WCI  25
WOODRUFF       CLOUDY    32  27  83 W7        30.09R WCI  25
RHINELANDER    CLOUDY    29  22  75 W8        30.09R WCI  21
EAGLE RIVER    CLOUDY    28  22  79 W6        30.08R WCI  22
LAND O LAKES   CLOUDY    29  24  80 W6        30.07R WCI  23
PHILLIPS       CLOUDY    28  23  80 W5        30.11R WCI  23
TOMAHAWK       CLOUDY    28  24  82 W6        30.12R WCI  22
MEDFORD        CLOUDY    27  22  82 W9        30.15R WCI  18
MERRILL        CLOUDY    29  24  79 W8        30.15R WCI  21
$$

WIZ029-030-035-036-043>047-240000-
CENTRAL WISCONSIN

CITY           SKY/WX    TMP DP  RH WIND       PRES   REMARKS
WAUSAU         CLOUDY    29  22  75 W14       30.13R WCI  18
MOSINEE        CLOUDY    28  25  86 W15       30.16R WCI  17
MARSHFIELD     CLOUDY    28  23  81 W14       30.16R WCI  17
STEVENS POINT  CLOUDY    29  22  76 W14       30.18R WCI  18
WAUPACA        CLOUDY    34  26  73 W9        30.18R WCI  27
WAUTOMA        CLOUDY    32  26  78 W13       30.19R WCI  22
WISC RAPIDS    CLOUDY    31  22  69 W9        30.20R WCI  23
CAMP DOUGLAS   MOCLDY    32  24  73 W13       30.20R WCI  22
$$

WIZ011>013-019>022-031-037>040-048>050-240000-
NORTHEAST WISCONSIN

CITY           SKY/WX    TMP DP  RH WIND       PRES   REMARKS
ANTIGO         CLOUDY    29  23  79 W14G21    30.11R WCI  18
SHAWANO        CLOUDY    34  27  75 W7        30.16R WCI  28
OCONTO         CLOUDY    34  28  79 W9        30.13R WCI  27
STURGEON BAY   CLOUDY    35  28  75 W14       30.13R WCI  26
GREEN BAY      CLOUDY    34  26  72 W20       30.16R WCI  23
MANITOWOC      CLOUDY    35  29  78 W13G21    30.17R WCI  26
APPLETON       CLOUDY    34  25  69 W15G23    30.14R WCI  24
CLINTONVILLE   CLOUDY    33  24  69 NW14      30.18R WCI  23
OSHKOSH        CLOUDY    34  27  75 W12G18    30.17R WCI  25
$$

WIZ032>034-041-042-053>061-240000-
SOUTHWEST WISCONSIN

CITY           SKY/WX    TMP DP  RH WIND       PRES   REMARKS
LA CROSSE      CLOUDY    31  23  72 W9        30.25R WCI  23
SPARTA         MOCLDY    31  24  74 W9        30.24R WCI  23
VIROQUA        FAIR      32  27  81 W8        30.20R WCI  25
BOSCOBEL       FAIR      35  24  64 W8        30.25R WCI  29
PRAIRIE DU CHI FAIR      32  23  69 W10       30.26R WCI  24
PLATTEVILLE    FAIR      33  29  84 W9        30.23R WCI  25
$$

WIZ056-057-062-063-064-067-068-240000-
SOUTH CENTRAL WISCONSIN

CITY           SKY/WX    TMP DP  RH WIND       PRES   REMARKS
REEDSBURG      FAIR      33  25  73 W9        30.21R WCI  25
BARABOO/DELLS  FAIR      34  26  72 W9        30.20R WCI  26
LONE ROCK      FAIR      35  26  69 W10       30.22R WCI  27
MINERAL POINT  FAIR      34  30  86 W13       30.21R WCI  25
MADISON        CLOUDY    36  27  69 VRB7      30.21R WCI  30
MIDDLETON      FAIR      37  29  73 W10       30.21R WCI  29
WATERTOWN      MOCLDY    36  31  83 W5        30.19R WCI  32
MONROE         FAIR      32  28  86 W7        30.21S WCI  26
JANESVILLE     MOCLDY    37  30  75 W12       30.21R WCI  30
$$

WIZ051-052-058>065-066-070>072-240000-
SOUTHEAST WISCONSIN

CITY           SKY/WX    TMP DP  RH WIND       PRES   REMARKS
MILWAUKEE      CLOUDY    39  31  72 W10       30.20R WCI  32
WAUKESHA       CLOUDY    36  28  75 W12       30.20R WCI  27
MILWAUKEE/TIMM CLOUDY    37  28  70 W9        30.20R WCI  31
RACINE         CLOUDY    38  32  79 W7        30.22R WCI  33
BURLINGTON     CLOUDY    37  30  78 W7        30.21R WCI  31
KENOSHA        CLOUDY    38  31  76 W13       30.20R WCI  30
FOND DU LAC    CLOUDY    35  26  69 W9G21     30.18R WCI  28
SHEBOYGAN      CLOUDY    36  31  82 W9        30.17R WCI  29
WEST BEND      CLOUDY    36  32  87 W10       30.18R WCI  28
JUNEAU         CLOUDY    35  29  80 W5        30.20R WCI  31
$$

LSZ147-162-240000-
LAKE SUPERIOR

STATION/POSITION TIME  TEMP    WIND        PRES    WAVE
                       AIR SEA DIR/SP/G            HT/PER
                 (UTC) (F)     (DEG/KT/KT) (MB)    (FT/S)
DEVILS ISLAND    2300   30     250/ 17/ 20 1020.6R
SAXON HARBOR     2240   32     290/  7/ 12 1019.3R
$$

LMZ867-665-643>646-240000-
LAKE MICHIGAN

STATION/POSITION TIME  TEMP    WIND        PRES    WAVE
                       AIR SEA DIR/SP/G            HT/PER
                 (UTC) (F)     (DEG/KT/KT) (MB)    (FT/S)
NORTHPORT PIER   2240   37                 1018.6R
KEWAUNEE LAKESHO 2254   36     270/ 11/ 16 1019.8R
SHEBOYGAN LAKESH 2300   37     270/ 11/ 14 1022.4R
PORT WASHINGTON  2240   38     270/  9/ 16 1023.0R
KENOSHA   LAKESH 2300   38     280/ 10/ 14 1022.7
$$

TC  - TEMPERATURE IN CELSIUS
VSB - VISIBILITY IN STATUTE MILES
WCI - WIND CHILL INDEX
HX  - HEAT INDEX




USA.gov is the U.S. government's official web portal to all federal, state and local government web resources and services.